TimeMST,TemperatureF,Dew PointF,Humidity,Sea Level PressureIn,VisibilityMPH,Wind Direction,Wind SpeedMPH,Gust SpeedMPH,PrecipitationIn,Events,Conditions,WindDirDegrees,DateUTC
12:53 AM,37.9,19.0,47,29.56,10.0,West,17.3,28.8,N/A,,Overcast,280,2014-01-12 07:53:00
1:53 AM,37.0,16.0,42,29.54,10.0,West,18.4,27.6,N/A,,Mostly Cloudy,280,2014-01-12 08:53:00
2:53 AM,36.0,15.1,43,29.53,10.0,WSW,10.4,-,N/A,,Clear,250,2014-01-12 09:53:00
3:53 AM,33.1,14.0,46,29.57,10.0,WSW,16.1,-,N/A,,Clear,240,2014-01-12 10:53:00
4:53 AM,33.1,12.9,43,29.58,10.0,WSW,20.7,27.6,N/A,,Clear,250,2014-01-12 11:53:00
5:53 AM,32.0,14.0,48,29.59,10.0,WSW,18.4,25.3,N/A,,Clear,240,2014-01-12 12:53:00
6:53 AM,30.9,10.9,43,29.62,10.0,NNW,10.4,-,N/A,,Partly Cloudy,330,2014-01-12 13:53:00
7:53 AM,30.9,10.0,42,29.61,10.0,West,28.8,36.8,N/A,,Clear,270,2014-01-12 14:53:00
8:53 AM,32.0,12.0,44,29.65,10.0,West,18.4,29.9,N/A,,Clear,260,2014-01-12 15:53:00
9:53 AM,34.0,9.0,35,29.68,10.0,West,24.2,34.5,N/A,,Clear,280,2014-01-12 16:53:00
10:53 AM,35.1,7.0,31,29.69,10.0,WNW,18.4,28.8,N/A,,Clear,300,2014-01-12 17:53:00
11:53 AM,36.0,7.0,30,29.70,10.0,WNW,16.1,29.9,N/A,,Clear,290,2014-01-12 18:53:00
12:53 PM,36.0,7.0,30,29.69,10.0,WNW,21.9,39.1,N/A,,Clear,300,2014-01-12 19:53:00
1:53 PM,36.0,7.0,30,29.73,10.0,West,16.1,25.3,N/A,,Clear,280,2014-01-12 20:53:00
2:53 PM,37.0,7.0,29,29.77,10.0,WNW,17.3,29.9,N/A,,Clear,290,2014-01-12 21:53:00
3:53 PM,35.1,5.0,28,29.83,10.0,NW,19.6,31.1,N/A,,Clear,310,2014-01-12 22:53:00
4:05 PM,35.1,6.1,30,29.80,10.0,NW,11.5,-,N/A,,Clear,320,2014-01-12 23:05:00
4:53 PM,33.1,5.0,31,29.87,10.0,WNW,17.3,26.5,N/A,,Clear,290,2014-01-12 23:53:00
5:53 PM,30.9,5.0,33,29.90,10.0,NW,12.7,-,N/A,,Clear,310,2014-01-13 00:53:00
6:53 PM,34.0,6.1,31,29.92,10.0,WNW,19.6,38.0,N/A,,Clear,300,2014-01-13 01:53:00
7:53 PM,28.9,10.9,47,29.98,10.0,NW,11.5,21.9,N/A,,Clear,320,2014-01-13 02:53:00
8:53 PM,27.0,10.9,51,29.99,10.0,WSW,5.8,-,N/A,,Clear,250,2014-01-13 03:53:00
9:53 PM,28.0,9.0,45,29.97,10.0,ESE,6.9,-,N/A,,Clear,120,2014-01-13 04:53:00
10:53 PM,24.1,12.0,60,29.99,10.0,SSW,3.5,-,N/A,,Clear,200,2014-01-13 05:53:00
11:53 PM,26.1,10.9,53,29.95,10.0,Calm,Calm,-,N/A,,Clear,0,2014-01-13 06:53:00